User: anonymous   Login
Location: Bussy-Saint-Georges
(48.8410°N, 2.7017°E)
Time: 03:26:55
(UTC+00:00)
Language:

Cosmos 2278 Rocket - Orbit

View from above orbital plane
View from above orbital plane
View from above satellite
View from above satellite

Ground track
Ground track

The orbit data is extracted from the following two-line orbital elements,

1 23088U 94023B   22020.39915307  .00000317  00000-0  18930-3 0  9997
2 23088  71.0009 359.6391 0001365  42.5137 317.6091 14.14700093432615
Epoch (UTC): 20 January 2022 09:34:46
Eccentricity: 0.0001365
inclination: 71.0009°
perigee height: 842 km
apogee height: 844 km
right ascension of ascending node: 359.6391°
argument of perigee: 42.5137°
revolutions per day: 14.14700093
mean anomaly at epoch: 317.6091°
orbit number at epoch: 43261

The dashed part of the orbit path shows where the satellite is in the earth's shadow,  

DLR